Weather History for Burlington, IA

Change the Weather History Date:

Thursday, December 12, 2013

  Actual Average Record
Temperature  
Mean Temperature 16 °F 30 °F  
Max Temperature 31 °F 38 °F 66 °F (1991)
Min Temperature 1 °F 22 °F -10 °F (1962)
Degree Days  
Heating Degree Days 49 35  
Month to date heating degree days 497 398  
Since 1 July heating degree days 1734 1471  
Cooling Degree Days 0 0  
Month to date cooling degree days 0 0  
Year to date cooling degree days 1115 1207  
Moisture  
Dew Point 7 °F    
Average Humidity 66    
Maximum Humidity 83    
Minimum Humidity 49    
Precipitation  
Precipitation 0.00 in 0.07 in 0.46 in (1991)
Month to date precipitation 0.07 0.91  
Year to date precipitation 32.46 37.30  
Sea Level Pressure  
Sea Level Pressure 30.40 in    
Wind  
Wind Speed 7 mph (SW)    
Max Wind Speed 20 mph    
Max Gust Speed 23 mph    
Visibility 9 miles    
Events      
T = Trace of Precipitation, MM = Missing Value Source: NWS Daily Summary

Daily Weather History Graph

Daily Weather History Graph

Search for Another Location

Airport:

Trip Planner

Search our weather history database for the weather conditions in past years. The results will help you decide how hot, cold, wet, or windy it might be!

Date:

Astronomy

Dec. 12, 2013 Rise Set
Actual Time 7:19 AM CST 4:37 PM CST
Civil Twilight 6:48 AM CST 5:08 PM CST
Nautical Twilight 6:14 AM CST 5:42 PM CST
Astronomical Twilight 5:40 AM CST 6:15 PM CST
Moon 1:45 PM CST (12/12) 2:41 AM CST (12/12)
Length of Visible Light 10h 19m
Length of Day
9h 17m
Waxing Gibbous, 80% of the Moon is Illuminated
Dec 12
Waxing Gibbous
Dec 17
Full
Dec 25
Last Quarter
Jan 1
New
Jan 7
First Quarter

Hourly Weather History & Observations

Time (CST) Temp. Windchill Dew Point Humidity Pressure Visibility Wind Dir Wind Speed Gust Speed Precip Events Conditions
12:53 AM 1.9 °F - -5.1 °F 72% 30.61 in 10.0 mi Calm Calm - N/A   Clear
1:53 AM 1.0 °F -8.7 °F -5.1 °F 75% 30.59 in 10.0 mi SSW 4.6 mph - N/A   Clear
2:53 AM 1.0 °F -10.3 °F -4.0 °F 79% 30.58 in 10.0 mi South 5.8 mph - N/A   Clear
3:53 AM 3.0 °F -8.0 °F -2.9 °F 76% 30.56 in 10.0 mi South 5.8 mph - N/A   Clear
4:53 AM 3.9 °F -9.4 °F -2.0 °F 76% 30.54 in 10.0 mi SSW 8.1 mph - N/A   Clear
5:53 AM 5.0 °F -10.8 °F -0.9 °F 76% 30.51 in 10.0 mi SSW 11.5 mph - N/A   Clear
6:53 AM 7.0 °F -8.3 °F -0.0 °F 73% 30.50 in 10.0 mi SSW 11.5 mph - N/A   Clear
7:53 AM 9.0 °F -5.1 °F 1.0 °F 70% 30.48 in 10.0 mi SSW 10.4 mph - N/A   Clear
8:53 AM 12.9 °F -1.6 °F 3.9 °F 67% 30.46 in 5.0 mi SSW 12.7 mph - N/A   Haze
9:53 AM 19.0 °F 5.6 °F 6.1 °F 57% 30.47 in 10.0 mi SW 13.8 mph - N/A   Clear
10:53 AM 23.0 °F 11.1 °F 10.0 °F 58% 30.43 in 10.0 mi SW 12.7 mph - N/A   Clear
11:53 AM 27.0 °F 15.6 °F 12.0 °F 53% 30.39 in 9.0 mi WSW 13.8 mph - N/A   Clear
12:53 PM 28.9 °F 19.8 °F 14.0 °F 54% 30.38 in 10.0 mi WSW 10.4 mph - N/A   Clear
1:53 PM 30.0 °F 25.2 °F 14.0 °F 51% 30.37 in 8.0 mi West 4.6 mph - N/A   Clear
2:53 PM 30.9 °F 26.2 °F 15.1 °F 52% 30.35 in 10.0 mi WSW 4.6 mph - N/A   Clear
3:53 PM 30.0 °F 23.2 °F 16.0 °F 56% 30.34 in 5.0 mi WSW 6.9 mph - N/A   Haze
4:53 PM 28.0 °F 24.2 °F 15.1 °F 58% 30.32 in 10.0 mi WSW 3.5 mph - N/A   Clear
5:53 PM 25.0 °F 20.7 °F 14.0 °F 63% 30.30 in 7.0 mi SW 3.5 mph - N/A   Clear
6:53 PM 24.1 °F 19.7 °F 14.0 °F 65% 30.29 in 5.0 mi SSW 3.5 mph - N/A   Haze
7:53 PM 25.0 °F 19.3 °F 14.0 °F 63% 30.28 in 10.0 mi SW 4.6 mph - N/A   Clear
8:53 PM 23.0 °F 18.4 °F 14.0 °F 68% 30.26 in 8.0 mi SSW 3.5 mph - N/A   Clear
9:53 PM 19.9 °F 14.9 °F 12.9 °F 74% 30.25 in 9.0 mi South 3.5 mph - N/A   Clear
10:53 PM 19.9 °F - 12.9 °F 74% 30.23 in 10.0 mi Calm Calm - N/A   Clear
11:53 PM 17.1 °F - 10.9 °F 77% 30.22 in 10.0 mi Calm Calm - N/A   Clear